Location: Columbia
(38.9520°N, 92.3340°W)
Time: 08:54:52
(UTC-05:00)

Tiangong 1 - Visible Passes

Search period start: 26 September 2016 00:00
Search period end: 06 October 2016 00:00
Orbit: 358 x 379 km, 42.8° (Epoch: 26 September)

Date Brightness Start Highest point End Pass type
(mag) Time Alt. Az. Time Alt. Az. Time Alt. Az.
26 Sep 1.3 05:25:06 56° N 05:25:06 56° N 05:27:57 10° ENE visible
27 Sep 1.9 05:55:31 23° WNW 05:56:57 38° N 05:59:50 10° ENE visible
28 Sep 3.6 04:53:59 21° NE 04:53:59 21° NE 04:55:12 10° ENE visible
28 Sep 1.9 06:26:04 10° WNW 06:28:57 40° N 06:31:52 10° E visible
29 Sep 2.1 05:24:20 37° N 05:24:20 37° N 05:27:04 10° ENE visible
30 Sep 1.7 05:54:40 24° NW 05:56:08 46° N 05:59:04 10° E visible
01 Oct 3.8 04:53:07 19° ENE 04:53:07 19° ENE 04:54:12 10° ENE visible
01 Oct 0.9 06:25:01 11° WNW 06:27:54 87° SSW 06:30:56 10° ESE visible
02 Oct 1.7 05:23:30 52° NE 05:23:30 52° NE 05:26:07 10° E visible
03 Oct 1.0 05:53:57 40° W 05:54:45 60° SSW 05:57:45 10° SE visible
04 Oct 4.1 04:52:33 13° ESE 04:52:33 13° ESE 04:53:00 10° ESE visible
04 Oct 2.6 06:24:27 13° WSW 06:26:08 20° SSW 06:28:27 10° SSE visible
05 Oct 3.1 05:23:08 20° SSE 05:23:08 20° SSE 05:24:18 10° SE visible
